User: anonymous   Login
Location: Frysztak
(49.8373°N, 21.6089°E)
Time: 05:18:20
(UTC+02:00)
Language:

ISS - Orbit

View from above orbital plane
View from above orbital plane
View from above satellite
View from above satellite

Ground track
Ground track

The orbit data is extracted from the following two-line orbital elements,

1 25544U 98067A   18294.50917240  .00016717  00000-0  10270-3 0  9021
2 25544  51.6357 109.2219 0003872 314.9576  45.1262 15.53845320 18159
Epoch (UTC): 21 October 2018 12:13:12
Eccentricity: 0.0003872
inclination: 51.6357°
perigee height: 403 km
apogee height: 408 km
right ascension of ascending node: 109.2219°
argument of perigee: 314.9576°
revolutions per day: 15.53845320
mean anomaly at epoch: 45.1262°
orbit number at epoch: 1815

The dashed part of the orbit path shows where the satellite is in the earth's shadow,  

DLR